User: anonymous   Login
Location: Unspecified
(0.0000°N, 0.0000°E)
Time: 00:56:21
(UTC+00:00)
Language:

Megsat 1 - Orbit

View from above orbital plane
View from above orbital plane
View from above satellite
View from above satellite

Ground track
Ground track

The orbit data is extracted from the following two-line orbital elements,

1 26545U 00057A   21023.52760602 -.00000017  00000-0  15784-4 0  9998
2 26545  64.5559 322.7958 0037263 219.1288 140.7124 14.85143324 99794
Epoch (UTC): 23 January 2021 12:39:45
Eccentricity: 0.0037263
inclination: 64.5559°
perigee height: 587 km
apogee height: 639 km
right ascension of ascending node: 322.7958°
argument of perigee: 219.1288°
revolutions per day: 14.85143324
mean anomaly at epoch: 140.7124°
orbit number at epoch: 9979

The dashed part of the orbit path shows where the satellite is in the earth's shadow,  

DLR